Hailey, ID

1:12 PM MDT on August 30, 2016 (GMT -0600)
Friedman Memorial

Weather History for KSUN - January, 2013

Change the Weather History Date:

Tuesday, January 15, 2013

  Actual Average Record
Temperature  
Mean Temperature 3 °F -  
Max Temperature 10 °F 33 °F 50 °F (1999)
Min Temperature -4 °F 14 °F -4 °F (2007)
Degree Days  
Heating Degree Days 62    
Moisture  
Dew Point -3 °F    
Average Humidity 83    
Maximum Humidity 92    
Minimum Humidity 67    
Precipitation  
Precipitation 0.00 in - - ()
Sea Level Pressure  
Sea Level Pressure 30.41 in    
Wind  
Wind Speed 5 mph (NNW)    
Max Wind Speed 9 mph    
Max Gust Speed -    
Visibility 10 miles    
Events      
Averages and records for this station are not official NWS values.
T = Trace of Precipitation, MM = Missing Value Source: NWS Daily Summary

Daily Weather History Graph

Daily Weather History Graph

Search for Another Location

Airport or City:

Trip Planner

Search our weather history database for the weather conditions in past years. The results will help you decide how hot, cold, wet, or windy it might be!

Date:

Astronomy

Jan. 15, 2013 Rise Set
Actual Time 8:06 AM MST 5:26 PM MST
Civil Twilight 7:35 AM MST 5:58 PM MST
Nautical Twilight 6:59 AM MST 6:34 PM MST
Astronomical Twilight 6:25 AM MST 7:08 PM MST
Moon 10:05 AM MST (1/15) 10:31 PM MST (1/15)
Length of Visible Light 10h 23m
Length of Day
9h 19m
Waxing Crescent, 20% of the Moon is Illuminated
Jan 15
Waxing Crescent
Jan 18
First Quarter
Jan 26
Full
Feb 3
Last Quarter
Feb 10
New

Hourly Weather History & Observations

Time (MST) Temp. Windchill Dew Point Humidity Pressure Visibility Wind Dir Wind Speed Gust Speed Precip Events Conditions
12:15 AM -2.2 °F -14.2 °F -5.8 °F 85% 30.28 in 10.0 mi NNW 5.8 mph - N/A   Clear
12:35 AM -4.0 °F -16.3 °F -5.8 °F 92% 30.29 in 10.0 mi NW 5.8 mph - N/A   Clear
12:55 AM -2.2 °F -14.2 °F -5.8 °F 85% 30.29 in 10.0 mi NW 5.8 mph - N/A   Clear
1:15 AM -2.2 °F -15.6 °F -5.8 °F 85% 30.30 in 10.0 mi NW 6.9 mph - N/A   Clear
1:35 AM -4.0 °F -16.3 °F -7.6 °F 85% 30.30 in 10.0 mi NNW 5.8 mph - N/A   Clear
2:15 AM -4.0 °F -14.6 °F -5.8 °F 92% 30.31 in 10.0 mi NW 4.6 mph - N/A   Clear
2:35 AM -2.2 °F -14.2 °F -5.8 °F 85% 30.33 in 10.0 mi North 5.8 mph - N/A   Clear
2:55 AM -4.0 °F -14.6 °F -7.6 °F 85% 30.34 in 10.0 mi NNW 4.6 mph - N/A   Scattered Clouds
3:15 AM -2.2 °F -10.4 °F -5.8 °F 85% 30.33 in 10.0 mi North 3.5 mph - N/A   Mostly Cloudy
3:35 AM -2.2 °F -12.5 °F -5.8 °F 85% 30.34 in 10.0 mi NNW 4.6 mph - N/A   Mostly Cloudy
3:55 AM -0.4 °F -10.4 °F -5.8 °F 78% 30.36 in 10.0 mi NNW 4.6 mph - N/A   Overcast
4:15 AM -0.4 °F -10.4 °F -5.8 °F 78% 30.36 in 10.0 mi North 4.6 mph - N/A   Overcast
4:35 AM -0.4 °F -10.4 °F -5.8 °F 78% 30.35 in 10.0 mi NNW 4.6 mph - N/A   Mostly Cloudy
4:55 AM -0.4 °F -8.3 °F -5.8 °F 78% 30.35 in 10.0 mi NW 3.5 mph - N/A   Scattered Clouds
5:15 AM -2.2 °F -18.0 °F -7.6 °F 78% 30.36 in 10.0 mi NNW 9.2 mph - N/A   Clear
5:35 AM -0.4 °F -10.4 °F -5.8 °F 78% 30.36 in 10.0 mi NW 4.6 mph - N/A   Clear
5:55 AM -0.4 °F -13.4 °F -5.8 °F 78% 30.36 in 10.0 mi NNW 6.9 mph - N/A   Clear
6:47 AM -2.2 °F -12.5 °F -7.6 °F 78% 30.36 in 10.0 mi NNW 4.6 mph - N/A   Partly Cloudy
7:50 AM -2.2 °F -12.5 °F -5.8 °F 85% 30.40 in 10.0 mi WNW 4.6 mph - N/A   Partly Cloudy
8:48 AM -2.2 °F - -5.8 °F 85% 30.42 in 10.0 mi Calm Calm - N/A   Partly Cloudy
9:47 AM 1.4 °F - -5.8 °F 72% 30.45 in 10.0 mi Calm Calm - N/A   Scattered Clouds
10:47 AM 6.8 °F - -2.2 °F 67% 30.44 in 10.0 mi Calm Calm - N/A   Scattered Clouds
11:47 AM 8.6 °F 0.1 °F 1.4 °F 73% 30.44 in 10.0 mi ESE 4.6 mph - N/A   Scattered Clouds
12:47 PM 10.4 °F 0.8 °F 3.2 °F 73% 30.44 in 10.0 mi ESE 5.8 mph - N/A   Scattered Clouds
1:47 PM 10.4 °F -0.4 °F 5.0 °F 79% 30.42 in 10.0 mi ESE 6.9 mph - N/A   Partly Cloudy
2:47 PM 10.4 °F -1.5 °F 5.0 °F 79% 30.43 in 10.0 mi ESE 8.1 mph - N/A   Scattered Clouds
3:55 PM 10.4 °F 0.8 °F 5.0 °F 79% 30.47 in 10.0 mi SE 5.8 mph - N/A   Scattered Clouds
4:50 PM 8.6 °F -4.7 °F 3.2 °F 79% 30.49 in 10.0 mi SE 9.2 mph - N/A   Scattered Clouds
5:55 PM 6.8 °F - 3.2 °F 85% 30.50 in 10.0 mi Calm Calm - N/A   Partly Cloudy
6:47 PM 6.8 °F - 1.4 °F 79% 30.50 in 10.0 mi Calm Calm - N/A   Partly Cloudy
7:47 PM 5.0 °F - 1.4 °F 85% 30.51 in 10.0 mi Calm Calm - N/A   Clear
8:47 PM 1.4 °F - -0.4 °F 92% 30.52 in 10.0 mi Calm Calm - N/A   Clear
9:47 PM -0.4 °F - -2.2 °F 92% 30.54 in 10.0 mi Calm Calm - N/A   Clear
10:15 PM 1.4 °F -8.3 °F -0.4 °F 92% 30.53 in 10.0 mi NW 4.6 mph - N/A   Clear
10:35 PM 1.4 °F -6.2 °F -0.4 °F 92% 30.53 in 10.0 mi NNW 3.5 mph - N/A   Clear
11:15 PM 1.4 °F -11.3 °F -0.4 °F 92% 30.53 in 10.0 mi NNW 6.9 mph - N/A   Clear
11:35 PM -0.4 °F -10.4 °F -4.0 °F 85% 30.53 in 10.0 mi NNW 4.6 mph - N/A   Clear
11:55 PM -0.4 °F -10.4 °F -4.0 °F 85% 30.53 in 10.0 mi WNW 4.6 mph - N/A   Clear